Alakanuk, AK

10:15 PM AKDT on July 23, 2016 (GMT -0800)
Emmonak

Weather History for PAEM - February, 2013

Change the Weather History Date:

Saturday, February 23, 2013

  Actual Average Record
Temperature  
Mean Temperature -13 °F -  
Max Temperature -4 °F 16 °F 33 °F (2002)
Min Temperature -22 °F 6 °F -22 °F (2013)
Degree Days  
Heating Degree Days 78    
Moisture  
Dew Point -20 °F    
Average Humidity 66    
Maximum Humidity 84    
Minimum Humidity 32    
Precipitation  
Precipitation 0.00 in - - ()
Sea Level Pressure  
Sea Level Pressure 29.31 in    
Wind  
Wind Speed 10 mph (North)    
Max Wind Speed 16 mph    
Max Gust Speed -    
Visibility 10 miles    
Events      
Averages and records for this station are not official NWS values.
T = Trace of Precipitation, MM = Missing Value Source: NWS Daily Summary

Daily Weather History Graph

Daily Weather History Graph

Search for Another Location

Airport or City:

Trip Planner

Search our weather history database for the weather conditions in past years. The results will help you decide how hot, cold, wet, or windy it might be!

Date:

Astronomy

Feb. 23, 2013 Rise Set
Actual Time 9:19 AM AKST 7:03 PM AKST
Civil Twilight 8:33 AM AKST 7:50 PM AKST
Nautical Twilight 7:40 AM AKST 8:43 PM AKST
Astronomical Twilight 6:47 AM AKST 9:36 PM AKST
Moon 5:09 PM AKST (2/23) 8:12 AM AKST (2/23)
Length of Visible Light 11h 17m
Length of Day
9h 43m
Waxing Gibbous, 96% of the Moon is Illuminated
Feb 23
Waxing Gibbous
Feb 25
Full
Mar 4
Last Quarter
Mar 11
New
Mar 19
First Quarter

Hourly Weather History & Observations

Time (AKST) Temp. Windchill Dew Point Humidity Pressure Visibility Wind Dir Wind Speed Gust Speed Precip Events Conditions
12:16 AM -20.2 °F -37.3 °F -29.2 °F 63% 29.37 in 10.0 mi NNE 6.9 mph - N/A   Partly Cloudy
12:36 AM -20.2 °F -37.3 °F - N/A% 29.37 in 10.0 mi NNE 6.9 mph - N/A   Clear
12:56 AM -20.2 °F -38.8 °F -27.4 °F 69% 29.36 in 10.0 mi NNE 8.1 mph - N/A   Clear
1:16 AM -20.2 °F -38.8 °F - N/A% 29.35 in 10.0 mi NNE 8.1 mph - N/A   Clear
1:36 AM -22.0 °F -42.3 °F - N/A% 29.35 in 10.0 mi North 9.2 mph - N/A   Clear
1:56 AM -22.0 °F -42.3 °F -29.2 °F 69% 29.34 in 10.0 mi North 9.2 mph - N/A   Clear
2:16 AM -20.2 °F -40.1 °F - N/A% 29.32 in 10.0 mi North 9.2 mph - N/A   Clear
2:36 AM -20.2 °F -40.1 °F -27.4 °F 69% 29.32 in 10.0 mi North 9.2 mph - N/A   Clear
2:56 AM -18.4 °F -39.1 °F -25.6 °F 70% 29.31 in 10.0 mi NNE 10.4 mph - N/A   Clear
3:16 AM -14.8 °F -36.6 °F -18.4 °F 84% 29.31 in 10.0 mi NNE 12.7 mph - N/A   Clear
3:36 AM -16.6 °F -35.7 °F -27.4 °F 58% 29.31 in 10.0 mi North 9.2 mph - N/A   Clear
3:56 AM -16.6 °F -35.7 °F -25.6 °F 64% 29.30 in 10.0 mi North 9.2 mph - N/A   Clear
4:16 AM -18.4 °F -36.6 °F -29.2 °F 58% 29.31 in 10.0 mi North 8.1 mph - N/A   Clear
4:36 AM -18.4 °F -36.6 °F -27.4 °F 63% 29.30 in 10.0 mi North 8.1 mph - N/A   Clear
4:56 AM -20.2 °F -37.3 °F - N/A% 29.30 in 10.0 mi North 6.9 mph - N/A   Clear
5:16 AM -20.2 °F -37.3 °F -27.4 °F 69% 29.30 in 10.0 mi North 6.9 mph - N/A   Clear
5:36 AM -20.2 °F -40.1 °F - N/A% 29.29 in 10.0 mi North 9.2 mph - N/A   Clear
5:56 AM -18.4 °F -37.9 °F -23.8 °F 76% 29.29 in 10.0 mi North 9.2 mph - N/A   Clear
6:16 AM -18.4 °F -36.6 °F -29.2 °F 58% 29.29 in 10.0 mi North 8.1 mph - N/A   Clear
6:36 AM -18.4 °F -37.9 °F -27.4 °F 63% 29.28 in 10.0 mi North 9.2 mph - N/A   Clear
6:56 AM -18.4 °F -37.9 °F -27.4 °F 63% 29.27 in 10.0 mi North 9.2 mph - N/A   Clear
7:16 AM -16.6 °F -36.8 °F -22.0 °F 76% 29.27 in 10.0 mi North 10.4 mph - N/A   Clear
7:36 AM -14.8 °F -34.6 °F -23.8 °F 64% 29.27 in 10.0 mi NNE 10.4 mph - N/A   Clear
7:56 AM -11.2 °F -31.1 °F -18.4 °F 70% 29.27 in 10.0 mi NNE 11.5 mph - N/A   Clear
8:16 AM -11.2 °F -30.1 °F -16.6 °F 77% 29.27 in 10.0 mi NNE 10.4 mph - N/A   Clear
8:36 AM -11.2 °F -30.1 °F -22.0 °F 59% 29.27 in 10.0 mi North 10.4 mph - N/A   Clear
8:56 AM -13.0 °F -32.4 °F -23.8 °F 59% 29.27 in 10.0 mi North 10.4 mph - N/A   Clear
9:16 AM -14.8 °F -33.5 °F -23.8 °F 64% 29.27 in 10.0 mi North 9.2 mph - N/A   Clear
9:36 AM -14.8 °F -35.6 °F -22.0 °F 70% 29.27 in 10.0 mi North 11.5 mph - N/A   Clear
9:56 AM -13.0 °F -34.3 °F -20.2 °F 70% 29.27 in 10.0 mi North 12.7 mph - N/A   Clear
10:16 AM -13.0 °F -34.3 °F -22.0 °F 64% 29.27 in 10.0 mi North 12.7 mph - N/A   Clear
10:36 AM -13.0 °F -33.4 °F -22.0 °F 64% 29.27 in 10.0 mi North 11.5 mph - N/A   Clear
10:56 AM -13.0 °F -34.3 °F -20.2 °F 70% 29.27 in 10.0 mi North 12.7 mph - N/A   Clear
11:16 AM -11.2 °F -32.1 °F -16.6 °F 77% 29.27 in 10.0 mi North 12.7 mph - N/A   Scattered Clouds
11:36 AM -9.4 °F -29.8 °F -18.4 °F 65% 29.26 in 10.0 mi North 12.7 mph - N/A   Partly Cloudy
11:56 AM -9.4 °F -31.4 °F -18.4 °F 65% 29.26 in 10.0 mi North 15.0 mph - N/A   Clear
12:16 PM -9.4 °F -29.8 °F -16.6 °F 71% 29.27 in 10.0 mi North 12.7 mph - N/A   Clear
12:36 PM -7.6 °F -28.3 °F -11.2 °F 84% 29.27 in 10.0 mi North 13.8 mph - N/A   Clear
12:56 PM -7.6 °F -28.3 °F -11.2 °F 84% 29.27 in 10.0 mi North 13.8 mph - N/A   Clear
1:16 PM -7.6 °F -27.5 °F -14.8 °F 71% 29.27 in 10.0 mi North 12.7 mph - N/A   Clear
1:36 PM -5.8 °F -26.0 °F -23.8 °F 42% 29.28 in 10.0 mi North 13.8 mph - N/A   Clear
1:56 PM -5.8 °F -26.0 °F -14.8 °F 65% 29.28 in 10.0 mi North 13.8 mph - N/A   Clear
2:16 PM -5.8 °F -25.2 °F -29.2 °F 32% 29.28 in 10.0 mi North 12.7 mph - N/A   Clear
2:36 PM -5.8 °F -24.4 °F -25.6 °F 38% 29.28 in 10.0 mi North 11.5 mph - N/A   Clear
2:56 PM -5.8 °F -25.2 °F -18.4 °F 55% 29.28 in 10.0 mi North 12.7 mph - N/A   Clear
3:16 PM -4.0 °F -24.5 °F -11.2 °F 71% 29.28 in 10.0 mi North 15.0 mph - N/A   Clear
3:36 PM -4.0 °F -23.0 °F -11.2 °F 71% 29.28 in 10.0 mi North 12.7 mph - N/A   Clear
3:56 PM -4.0 °F -24.5 °F -11.2 °F 71% 29.29 in 10.0 mi North 15.0 mph - N/A   Clear
4:16 PM -4.0 °F -25.2 °F -11.2 °F 71% 29.29 in 10.0 mi North 16.1 mph - N/A   Clear
4:36 PM -4.0 °F -25.2 °F - N/A% 29.29 in 10.0 mi North 16.1 mph - N/A   Partly Cloudy
4:56 PM -4.0 °F -24.5 °F -11.2 °F 71% 29.29 in 10.0 mi North 15.0 mph - N/A   Partly Cloudy
5:16 PM -5.8 °F -24.4 °F -11.2 °F 77% 29.30 in 10.0 mi North 11.5 mph - N/A   Clear
5:36 PM -5.8 °F -25.2 °F -13.0 °F 71% 29.31 in 10.0 mi North 12.7 mph - N/A   Clear
5:56 PM -5.8 °F -24.4 °F -14.8 °F 65% 29.31 in 10.0 mi North 11.5 mph - N/A   Clear
6:16 PM -5.8 °F -24.4 °F -14.8 °F 65% 29.31 in 10.0 mi North 11.5 mph - N/A   Clear
6:36 PM -7.6 °F -24.6 °F -18.4 °F 59% 29.31 in 10.0 mi North 9.2 mph - N/A   Clear
6:56 PM -9.4 °F -28.9 °F -16.6 °F 71% 29.32 in 10.0 mi NNW 11.5 mph - N/A   Clear
7:16 PM -9.4 °F -29.8 °F -16.6 °F 71% 29.32 in 10.0 mi North 12.7 mph - N/A   Clear
7:36 PM -9.4 °F -29.8 °F -18.4 °F 65% 29.32 in 10.0 mi North 12.7 mph - N/A   Clear
7:56 PM -9.4 °F -28.9 °F -18.4 °F 65% 29.33 in 10.0 mi North 11.5 mph - N/A   Clear
8:16 PM -9.4 °F -27.9 °F -20.2 °F 59% 29.34 in 10.0 mi NNW 10.4 mph - N/A   Clear
8:36 PM -11.2 °F -30.1 °F -18.4 °F 70% 29.35 in 10.0 mi NNW 10.4 mph - N/A   Clear
8:56 PM -11.2 °F -31.1 °F -18.4 °F 70% 29.35 in 10.0 mi NNW 11.5 mph - N/A   Clear
9:16 PM -11.2 °F -32.1 °F -18.4 °F 70% 29.36 in 10.0 mi NNW 12.7 mph - N/A   Clear
9:36 PM -11.2 °F -31.1 °F -18.4 °F 70% 29.36 in 10.0 mi NNW 11.5 mph - N/A   Clear
9:56 PM -9.4 °F -27.9 °F -18.4 °F 65% 29.37 in 10.0 mi NNW 10.4 mph - N/A   Clear
10:16 PM -9.4 °F -29.8 °F -16.6 °F 71% 29.37 in 10.0 mi NNW 12.7 mph - N/A   Clear
10:36 PM -9.4 °F -28.9 °F -18.4 °F 65% 29.38 in 10.0 mi NNW 11.5 mph - N/A   Clear
10:56 PM -9.4 °F -28.9 °F -18.4 °F 65% 29.39 in 10.0 mi NNW 11.5 mph - N/A   Clear
11:16 PM -9.4 °F -27.9 °F -18.4 °F 65% 29.40 in 10.0 mi NNW 10.4 mph - N/A   Mostly Cloudy
11:36 PM -9.4 °F -26.8 °F -18.4 °F 65% 29.40 in 10.0 mi NNW 9.2 mph - N/A   Overcast
11:56 PM -7.6 °F -25.7 °F -16.6 °F 65% 29.41 in 10.0 mi NNW 10.4 mph - N/A   Overcast